985  
ASUS41 KRLX 170910  
RWRRLX  
REGIONAL WEATHER ROUNDUP  
NATIONAL WEATHER SERVICE CHARLESTON WV  
500 AM EDT MON JUN 17 2024  
 
NOTE: "FAIR" INDICATES FEW OR NO CLOUDS BELOW 12,000 FEET WITH NO  
SIGNIFICANT WEATHER AND/OR S TO VISIBILITY
.  
 
WVZ003-171000-  
NORTHERN PANHANDLE OF WEST VIRGINIA  
 
CITY SKY/WX TMP DP RH WIND PRES REMARKS
 
WHEELING CLEAR 71 64 78 S7 30.09S  

 
 
WVZ009-171000-  
NORTHWEST WEST VIRGINIA  
 
CITY SKY/WX TMP DP RH WIND PRES REMARKS
 
PARKERSBURG CLEAR 66 63 90 CALM 30.09R  

 
 
WVZ006-171000-  
WESTERN WEST VIRGINIA  
 
CITY SKY/WX TMP DP RH WIND PRES REMARKS
 
HUNTINGTON CLEAR 75 68 78 S3 30.08R  
POINT PLEASANT NOT AVBL  

 
 
WVZ015-171000-  
WEST CENTRAL WEST VIRGINIA  
 
CITY SKY/WX TMP DP RH WIND PRES REMARKS
 
CHARLESTON CLEAR 73 65 75 CALM 30.11R  

 
 
WVZ509-031-039-171000-  
NORTH CENTRAL WEST VIRGINIA  
 
CITY SKY/WX TMP DP RH WIND PRES REMARKS
 
MORGANTOWN PTCLDY 70 63 78 CALM 30.13S  
CLARKSBURG PTCLDY 67 63 87 CALM 30.13R  
BUCKHANNON MOCLDY 66 63 88 CALM 30.15R  
SUTTON CLEAR 66 64 94 CALM 30.13R  

 
 
WVZ515-516-025-034-042-507-171000-  
SOUTHERN WEST VIRGINIA  
 
CITY SKY/WX TMP DP RH WIND PRES REMARKS
 
BECKLEY CLEAR 68 63 84 SE6 30.22R  
LOGAN NOT AVBL  
PINEVILLE CLEAR 67 65 94 MISG 30.24R  
BLUEFIELD CLEAR 67 64 90 S3 30.24R  
LEWISBURG MOCLDY 63 62 96 NE3 30.23S  

 
 
WVZ525-526-171000-  
NORTHERN MOUNTAINS OF WEST VIRGINIA  
 
CITY SKY/WX TMP DP RH WIND PRES REMARKS
 
ELKINS MOCLDY 65 63 93 CALM 30.19R  

 
 
WVZ502-504-052-171000-  
EASTERN PANHANDLE OF WEST VIRGINIA  
 
CITY SKY/WX TMP DP RH WIND PRES REMARKS
 
PETERSBURG PTCLDY 64 63 97 NW5 30.15R  
CUMBERLAND PTCLDY 63 61 96 CALM 30.18R  
MARTINSBURG CLEAR 62 60 93 CALM 30.14S  

 
 
OHZ075-083-KYZ101-171000-  
SOUTHEAST OHIO/NORTHEAST KENTUCKY  
 
CITY SKY/WX TMP DP RH WIND PRES REMARKS
 
ATHENS PTCLDY 64 62 91 CALM 30.08S  
JACKSON CLEAR 64 64 100 CALM 30.09R  
ASHLAND PTCLDY 72 32 23 CALM 30.08R  

 
 
 
CLICK HERE TO GO TO PREVIOUS BULLETINS.

The Nexlab WV Page
The Nexlab OH Page
The Nexlab KY Page
The Nexlab VA Page Main Text Page